SL-12 DEB, 44984

Orbit data source: Space-Track

SL-12 DEB, 44984 is space debris in HEO originally from a launch on Mon, 25 Dec 2006 UTC launched from the Tyuratam Missile And Space Complex (TTMTR). Debris objects in space refer to the collection of defunct objects orbiting the Earth. Examples of debris include non-operational satellites, rocket bodies, and fragments generated from explosions, collisions, or faulty payload assembly.

Loading next visibility...
Identifier
44984, 2006-062U
Orbit
HEO
Country
Flag of CISCIS
Related business
Manufacturer
RKKE
Mission
Spacecraft
Bus & Motor
Unknown
Mass
Unknown
Launch date (UTC)
2006-12-25 (19 years ago)
Launch vehicle
Unknown
Launch site
Tyuratam Missile And Space Complex (TTMTR)
Object type
Payload
Rocket body
Debris
Shape & HBR
Unknown shape, 0.1 m
Radar Cross Section
Small (<0.1 m²)

Expand to show TLE details & history
Last TLE update: 6 months ago

TLE from 6 months ago
0 SL-12 DEB
1 44984U 06062U   25299.69424706  .00000050  00000-0  41489-3 0  9992
2 44984  63.9614  85.6891 5556655 335.7488   5.8592  4.23532052 92626
Epoch: 2025-10-26T16:39Z
TLE epoch observation values (Epoch: 2025-10-26T16:39:42.945Z)
Latitude
0.00007°
Longitude
160.44819°
Altitude
1,024.97 km
Speed
9.111 km/s
True Right ascension
05h 42m 44s
True Declination
0° 00' 00"
Sunlit
Object was in full shadow at epoch
Visualization orbit readout
Latitude
Unknown
Longitude
Unknown
Altitude
Unknown
Speed
Unknown
Apparent Right ascension
Unknown
Apparent Declination
Unknown
Sunlit
N/A
Visualization observer readout
Local Sidereal Time
18:11:37
Azimuth
Unknown
Elevation
Unknown
Doppler factor
Unknown
Orbital elements
Apogee altitude
18,723.411 km
Perigee altitude
791.453 km
Semi-major axis
16,135.569 km
Eccentricity
0.55567
Inclination
63.9614°
RAAN
85.6891°
Arg. of periapsis
335.7488°
True anomaly
24.15234°
Mean anomaly
5.8592°
Eccentric anomaly
13.04586°
Mean motion
1.05893 °/min
Orbital period
339.97 mins
BSTAR
0.00041489
Loading maneuver chart data...
Computing Atmospheric mass density...
Loading historical data...
Loading historical data...
Loading historical data...
Loading historical data...
Loading historical data...
Loading historical data...
Loading historical data...

Documentation

Showing up to 5 results
|